NS3L-13 Weather Reports


time (UTC)temp
C
wind
direction
speed
KPH
gust
KPH
rain 1hr
cm
rain 24hr
cm
rain mn
cm
humidity
%
barometer
mb
20260506183012 16 238 8.0 16.1 0.15 0.61 0.61 92 1007.5
20260506182514 15 235 3.2 12.9 0.18 0.61 0.61 92 1007.6
20260506182017 16 182 3.2 8.0 0.18 0.61 0.61 92 1007.6
20260506181504 15 192 4.8 11.3 0.15 0.58 0.58 92 1007.6
20260506180504 15 195 4.8 11.3 0.20 0.56 0.56 92 1007.7
20260506175504 16 224 4.8 14.5 0.18 0.53 0.53 92 1007.7
20260506175004 16 198 6.4 11.3 0.15 0.51 0.51 91 1007.7
20260506174504 16 198 3.2 8.0 0.15 0.51 0.51 91 1007.8
20260506174004 16 160 4.8 11.3 0.13 0.48 0.48 91 1007.7
20260506173504 16 196 3.2 11.3 0.15 0.48 0.48 91 1007.7
20260506173003 16 198 6.4 11.3 0.13 0.46 0.46 91 1007.7
20260506172504 16 194 3.2 16.1 0.10 0.43 0.43 91 1007.8
20260506172004 16 172 4.8 16.1 0.10 0.43 0.43 91 1007.9
20260506171504 16 190 8.0 14.5 0.10 0.43 0.43 91 1007.9
20260506170504 16 171 4.8 16.1 0.05 0.36 0.36 90 1007.9
20260506170004 16 202 8.0 19.3 0.05 0.36 0.36 90 1007.9
20260506165005 16 167 9.7 20.9 0.08 0.36 0.36 90 1007.9
20260506164504 16 186 11.3 27.4 0.10 0.36 0.36 90 1008.0
20260506164004 16 191 8.0 19.3 0.13 0.36 0.36 90 1008.0
20260506163504 16 201 9.7 22.5 0.15 0.33 0.33 90 1008.0
20260506163004 16 207 8.0 22.5 0.15 0.33 0.33 90 1007.9
20260506162504 16 178 8.0 20.9 0.18 0.33 0.33 90 1007.8
20260506162004 16 183 9.7 20.9 0.18 0.33 0.33 90 1007.9
20260506161504 16 180 9.7 22.5 0.20 0.33 0.33 90 1007.7
20260506161004 16 157 14.5 24.1 0.20 0.33 0.33 90 1007.8
20260506160504 16 174 16.1 32.2 0.18 0.30 0.30 90 1007.9
20260506160004 16 160 16.1 27.4 0.18 0.30 0.30 90 1008.0
20260506155504 16 162 11.3 16.1 0.20 0.30 0.30 90 1008.3
20260506155004 16 167 11.3 19.3 0.18 0.28 0.28 90 1008.5
20260506154503 16 202 9.7 19.3 0.18 0.25 0.25 89 1008.8
20260506154004 16 180 9.7 19.3 0.15 0.23 0.23 89 1008.8
20260506153504 16 195 11.3 24.1 0.13 0.18 0.18 89 1009.0
20260506152504 16 175 9.7 25.7 0.15 0.15 0.15 88 1009.0
20260506152004 16 164 11.3 32.2 0.15 0.15 0.15 88 1009.0
20260506151504 16 157 11.3 22.5 0.13 0.13 0.13 88 1008.9
20260506151004 17 151 9.7 22.5 0.13 0.13 0.13 88 1008.7
20260506150504 17 156 9.7 20.9 0.13 0.13 0.13 88 1008.6
20260506150004 17 169 9.7 20.9 0.13 0.13 0.13 87 1008.6
20260506145504 17 210 6.4 19.3 0.10 0.10 0.10 87 1008.6
20260506145004 17 175 8.0 19.3 0.10 0.10 0.10 87 1008.7
20260506144504 17 198 6.4 14.5 0.08 0.08 0.08 86 1008.5
20260506143504 17 191 4.8 14.5 0.05 0.05 0.05 85 1008.8
20260506143004 17 187 4.8 16.1 0.03 0.03 0.03 84 1008.9
20260506142504 17 179 6.4 16.1 0.00 0.00 0.00 83 1008.9
20260506142004 17 216 8.0 19.3 0.00 0.00 0.00 82 1008.9
20260506141504 17 230 8.0 19.3 0.00 0.00 0.00 82 1008.8
20260506141004 17 194 3.2 12.9 0.00 0.00 0.00 82 1008.7
20260506140504 17 161 8.0 22.5 0.00 0.00 0.00 82 1008.8
20260506135504 17 185 11.3 19.3 0.00 0.00 0.00 82 1008.6
20260506135004 17 196 9.7 19.3 0.00 0.00 0.00 81 1008.8
20260506134503 17 225 8.0 19.3 0.00 0.00 0.00 81 1008.7
20260506134004 17 186 8.0 14.5 0.00 0.00 0.00 81 1008.9
20260506133504 17 201 4.8 12.9 0.00 0.00 0.00 80 1008.9
20260506132504 18 212 4.8 12.9 0.00 0.00 0.00 79 1008.9
20260506132005 18 210 8.0 22.5 0.00 0.00 0.00 79 1008.9
20260506131503 18 191 4.8 14.5 0.00 0.00 0.00 78 1009.0
20260506131004 18 220 4.8 16.1 0.00 0.00 0.00 78 1009.0
20260506130504 18 250 9.7 16.1 0.00 0.00 0.00 77 1009.0
20260506125504 18 207 8.0 25.7 0.00 0.00 0.00 75 1009.1
20260506125004 18 195 4.8 20.9 0.00 0.00 0.00 74 1009.0
20260506124504 18 176 6.4 19.3 0.00 0.00 0.00 74 1009.0
20260506124004 18 219 8.0 19.3 0.00 0.00 0.00 74 1008.9
20260506123504 18 213 8.0 19.3 0.00 0.00 0.00 74 1008.9
20260506123004 18 180 9.7 22.5 0.00 0.00 0.00 74 1008.7
20260506122504 18 195 6.4 19.3 0.00 0.00 0.00 74 1008.7
20260506121004 18 198 4.8 19.3 0.00 0.00 0.00 74 1008.7
20260506120504 18 157 6.4 16.1 0.00 0.00 0.00 74 1008.7
20260506120004 18 160 8.0 14.5 0.00 0.00 0.00 74 1008.7
20260506115508 18 165 4.8 19.3 0.00 0.00 0.00 74 1008.8
20260506114503 18 174 8.0 16.1 0.00 0.00 0.00 74 1008.8
20260506114004 18 192 4.8 14.5 0.00 0.00 0.00 74 1008.8
20260506113504 18 183 6.4 16.1 0.00 0.00 0.00 74 1008.8
20260506112504 18 174 6.4 14.5 0.00 0.00 0.00 74 1008.8
20260506111504 18 155 8.0 14.5 0.00 0.00 0.00 73 1008.9
20260506111004 18 165 11.3 19.3 0.00 0.00 0.00 73 1008.8
20260506110504 18 184 9.7 27.4 0.00 0.00 0.00 73 1008.7
20260506105504 18 175 6.4 14.5 0.00 0.00 0.00 74 1008.5
20260506105004 18 158 6.4 16.1 0.00 0.00 0.00 74 1008.4
20260506104504 18 181 8.0 14.5 0.00 0.00 0.00 74 1008.4
20260506104003 18 222 8.0 14.5 0.00 0.00 0.00 74 1008.4
20260506103504 18 208 6.4 19.3 0.00 0.00 0.00 74 1008.2
20260506103004 18 164 8.0 19.3 0.00 0.00 0.00 74 1008.2
20260506101504 18 189 8.0 19.3 0.00 0.00 0.00 74 1008.3
20260506100504 18 164 9.7 16.1 0.00 0.00 0.00 73 1008.2
20260506095004 18 187 6.4 20.9 0.00 0.00 0.00 73 1008.5
20260506094504 18 213 6.4 19.3 0.00 0.00 0.00 72 1008.4
20260506094004 18 166 8.0 19.3 0.00 0.00 0.00 72 1008.3
20260506093505 18 162 6.4 16.1 0.00 0.00 0.00 72 1008.3
20260506092504 18 184 8.0 20.9 0.00 0.00 0.00 71 1008.4
20260506092004 18 168 8.0 20.9 0.00 0.00 0.00 71 1008.3
20260506091503 18 187 8.0 22.5 0.00 0.00 0.00 71 1008.3
20260506091004 18 166 6.4 14.5 0.00 0.00 0.00 70 1008.3
20260506090504 18 179 4.8 22.5 0.00 0.03 0.00 70 1008.4
20260506090007 18 177 9.7 16.1 0.00 0.03 0.00 70 1008.4
20260506085504 18 182 9.7 22.5 0.00 0.03 0.00 70 1008.5
20260506085004 18 175 4.8 14.5 0.00 0.05 0.00 70 1008.5
20260506084503 18 170 8.0 14.5 0.00 0.08 0.00 69 1008.5
20260506084004 18 161 8.0 14.5 0.00 0.08 0.00 69 1008.5
20260506083505 18 186 6.4 22.5 0.00 0.08 0.00 69 1008.6
20260506082504 18 204 4.8 14.5 0.00 0.08 0.00 68 1008.5
20260506082004 18 187 8.0 14.5 0.00 0.08 0.00 68 1008.6
20260506081504 19 163 4.8 14.5 0.00 0.08 0.00 67 1008.6
20260506081005 19 188 8.0 16.1 0.00 0.08 0.00 67 1008.6
20260506073504 19 166 4.8 11.3 0.00 0.08 0.00 65 1008.6
20260506073004 19 209 3.2 9.7 0.00 0.08 0.00 64 1008.6
20260506072504 19 234 4.8 12.9 0.00 0.08 0.00 64 1008.7
20260506072004 19 162 4.8 12.9 0.00 0.08 0.00 64 1008.7
20260506071504 19 206 4.8 12.9 0.00 0.08 0.00 63 1008.8
20260506071004 19 169 8.0 19.3 0.00 0.08 0.00 63 1008.8
20260506070504 19 197 1.6 12.9 0.00 0.08 0.00 63 1008.8
20260506062004 20 179 4.8 14.5 0.00 0.08 0.00 61 1009.1
20260506060504 20 215 8.0 19.3 0.00 0.08 0.00 61 1009.3
20260506051004 20 216 8.0 12.9 0.00 0.08 0.00 60 1009.6
20260506050503 20 171 4.8 12.9 0.00 0.08 0.00 60 1009.6
20260506045004 20 222 3.2 11.3 0.00 0.08 0.00 59 1009.7
20260506044504 20 176 3.2 9.7 0.00 0.08 0.00 58 1009.8
20260506043504 20 173 3.2 8.0 0.00 0.08 0.00 58 1009.7
20260506043004 20 173 1.6 4.8 0.00 0.08 0.00 57 1009.7
20260506042504 20 157 4.8 9.7 0.00 0.08 0.00 57 1009.8
20260506042004 20 188 8.0 20.9 0.00 0.08 0.00 57 1009.8
20260506041503 20 160 4.8 14.5 0.00 0.08 0.00 56 1009.8
20260506041004 20 162 4.8 11.3 0.00 0.08 0.00 56 1009.7
20260506040505 20 167 4.8 11.3 0.00 0.08 0.00 55 1009.7
20260506035504 21 168 4.8 14.5 0.00 0.08 0.08 55 1009.7
20260506035004 21 158 4.8 12.9 0.00 0.08 0.08 54 1009.7
20260506034504 21 192 3.2 14.5 0.00 0.08 0.08 54 1009.7
20260506034004 21 167 9.7 19.3 0.00 0.08 0.08 53 1009.7
20260506033005 21 188 9.7 22.5 0.00 0.08 0.08 53 1009.6
20260506032504 21 187 6.4 19.3 0.00 0.08 0.08 52 1009.6
20260506031503 21 194 9.7 20.9 0.00 0.08 0.08 52 1009.5
20260506031004 21 175 9.7 22.5 0.00 0.08 0.08 51 1009.5
20260506030504 21 164 6.4 19.3 0.00 0.08 0.08 51 1009.5
20260506030004 21 158 8.0 14.5 0.00 0.08 0.08 50 1009.5
20260506025504 21 157 9.7 19.3 0.00 0.08 0.08 50 1009.4
20260506025004 22 164 9.7 19.3 0.00 0.08 0.08 50 1009.4
20260506024504 22 173 8.0 19.3 0.00 0.08 0.08 49 1009.4
20260506023504 22 163 8.0 20.9 0.00 0.08 0.08 48 1009.6
20260506023004 22 179 9.7 19.3 0.00 0.08 0.08 48 1009.6
20260506022004 22 157 9.7 19.3 0.00 0.08 0.08 48 1009.5
20260506021504 22 182 8.0 16.1 0.00 0.08 0.08 47 1009.5
20260506020504 23 162 12.9 22.5 0.00 0.08 0.08 46 1009.4
20260506020004 23 168 9.7 24.1 0.00 0.08 0.08 45 1009.4
20260506015504 23 169 14.5 29.0 0.00 0.08 0.08 45 1009.4
20260506015004 23 168 12.9 24.1 0.00 0.08 0.08 45 1009.4
20260506014003 23 162 11.3 20.9 0.00 0.08 0.08 44 1009.3
20260506013503 23 186 8.0 19.3 0.00 0.08 0.08 43 1009.3
20260506013003 23 159 9.7 19.3 0.00 0.08 0.08 43 1009.2
20260506012504 23 180 9.7 20.9 0.00 0.08 0.08 42 1009.1
20260506012004 23 169 9.7 22.5 0.00 0.08 0.08 42 1009.0
20260506011504 23 167 9.7 24.1 0.00 0.08 0.08 42 1009.0
20260506011004 23 163 9.7 19.3 0.00 0.08 0.08 43 1008.9
20260506010504 23 182 14.5 24.1 0.00 0.08 0.08 42 1008.9
20260506010004 23 166 11.3 22.5 0.00 0.08 0.08 42 1008.8
20260506005504 23 157 12.9 25.7 0.00 0.08 0.08 42 1008.7
20260506005004 23 166 11.3 20.9 0.00 0.08 0.08 41 1008.7
20260506004504 24 191 9.7 19.3 0.00 0.08 0.08 41 1008.7
20260506004004 24 172 11.3 20.9 0.00 0.08 0.08 41 1008.7
20260506002004 24 190 12.9 32.2 0.00 0.08 0.08 40 1008.4
20260506001505 24 176 6.4 25.7 0.00 0.08 0.08 40 1008.3
20260506001004 24 159 11.3 22.5 0.00 0.08 0.08 40 1008.2
20260506000504 24 168 8.0 22.5 0.00 0.08 0.08 40 1008.3
20260506000003 25 183 9.7 20.9 0.00 0.08 0.08 40 1008.3
20260505235504 25 183 14.5 25.7 0.00 0.08 0.08 39 1008.3
20260505235004 25 176 8.0 16.1 0.00 0.08 0.08 40 1008.2
20260505234503 25 164 8.0 19.3 0.00 0.08 0.08 39 1008.1
20260505234003 25 199 14.5 32.2 0.00 0.08 0.08 39 1008.1
20260505233503 25 170 14.5 22.5 0.00 0.08 0.08 38 1008.0
20260505232504 25 147 9.7 19.3 0.00 0.08 0.08 37 1008.1
20260505232004 25 186 11.3 24.1 0.00 0.08 0.08 37 1008.1
20260505231504 25 203 12.9 22.5 0.00 0.08 0.08 37 1008.0
20260505231003 25 194 11.3 33.8 0.00 0.08 0.08 37 1008.0
20260505230509 25 219 14.5 33.8 0.00 0.08 0.08 37 1008.0
20260505230004 25 186 9.7 22.5 0.00 0.08 0.08 37 1007.9
20260505225506 26 205 11.3 33.8 0.00 0.08 0.08 37 1007.9
20260505225004 26 191 16.1 38.6 0.00 0.08 0.08 36 1007.8
20260505224504 26 185 19.3 32.2 0.00 0.08 0.08 36 1007.8
20260505224004 26 216 14.5 35.4 0.00 0.08 0.08 36 1007.8
20260505223504 26 180 8.0 25.7 0.00 0.08 0.08 38 1007.8
20260505223004 26 193 14.5 27.4 0.00 0.08 0.08 37 1007.7
20260505221504 26 203 11.3 32.2 0.00 0.08 0.08 37 1007.5
20260505221004 26 168 14.5 32.2 0.00 0.08 0.08 37 1007.6
20260505220504 26 159 19.3 32.2 0.00 0.08 0.08 37 1007.5
20260505220004 26 182 9.7 29.0 0.00 0.08 0.08 37 1007.5
20260505215504 26 166 9.7 25.7 0.00 0.08 0.08 37 1007.5
20260505215004 26 179 16.1 32.2 0.00 0.08 0.08 37 1007.6
20260505214504 26 205 9.7 32.2 0.00 0.08 0.08 37 1007.6
20260505213504 26 196 14.5 32.2 0.00 0.08 0.08 37 1007.6
20260505213004 26 171 8.0 25.7 0.00 0.08 0.08 38 1007.7
20260505212504 26 167 11.3 29.0 0.00 0.08 0.08 37 1007.5
20260505211504 26 164 14.5 40.2 0.00 0.08 0.08 36 1007.6
20260505210504 26 189 19.3 32.2 0.00 0.08 0.08 36 1007.5
20260505210003 26 173 17.7 32.2 0.00 0.08 0.08 37 1007.4
20260505205503 26 195 16.1 32.2 0.00 0.08 0.08 36 1007.4
20260505205004 26 194 17.7 32.2 0.00 0.08 0.08 35 1007.5
20260505204504 27 183 16.1 32.2 0.00 0.08 0.08 35 1007.4
20260505204004 26 196 11.3 24.1 0.00 0.08 0.08 37 1007.3
20260505203004 27 195 14.5 35.4 0.00 0.08 0.08 35 1007.3
20260505202504 27 202 9.7 29.0 0.00 0.08 0.08 35 1007.5
20260505202004 27 200 19.3 32.2 0.00 0.08 0.08 34 1007.4
20260505201504 27 176 14.5 29.0 0.00 0.08 0.08 35 1007.6
20260505201004 27 199 9.7 25.7 0.00 0.08 0.08 36 1007.5
20260505200504 27 184 12.9 25.7 0.00 0.08 0.08 35 1007.5
20260505195504 27 203 17.7 32.2 0.00 0.08 0.08 36 1007.6
20260505195004 27 178 16.1 32.2 0.00 0.08 0.08 35 1007.6
20260505194504 27 173 9.7 24.1 0.00 0.08 0.08 36 1007.6
20260505194005 27 215 8.0 33.8 0.00 0.08 0.08 37 1007.7
20260505193505 27 167 14.5 32.2 0.00 0.08 0.08 37 1007.6
20260505193004 27 172 19.3 41.8 0.00 0.08 0.08 36 1007.7
20260505192004 27 174 19.3 32.2 0.00 0.08 0.08 36 1007.6
20260505191004 27 175 17.7 35.4 0.00 0.08 0.08 36 1007.7
20260505190506 27 205 11.3 25.7 0.00 0.08 0.08 35 1007.8
20260505190004 27 182 14.5 27.4 0.00 0.08 0.08 35 1007.9
20260505185504 27 184 16.1 29.0 0.00 0.08 0.08 36 1007.9
20260505185004 27 193 9.7 25.7 0.00 0.08 0.08 37 1008.0
20260505184504 27 228 14.5 29.0 0.00 0.08 0.08 36 1008.1
20260505184005 27 218 11.3 25.7 0.00 0.08 0.08 37 1008.1
20260505183504 27 209 14.5 27.4 0.00 0.08 0.08 35 1008.3